KSDF

Louisville International Airport

Airport
ICAO code
KSDF
IATA Code
SDF
Summary
ICAO Region
NAM
ICAO Territory
Location

Louisville, Kentucky,

Serving
Louisville
Elevation
501 ft
Coordinates
38° 10' 27" N , 85° 44' 6" W
KCC
Airport LOS
Parallel Runway Operation
Airport WX
Cumulonimbus
Metar
Observation
KSDF 072356Z 27009KT 9SM -RA FEW034 OVC043 13/11 A3017 RMK AO2 RAB01E12B40 SLP216 P0000 60000 T01330111 10189 20133 51023
Station
Louisville, Standiford Field
Date/Time
2023-02-08 00:56:00
Wind direction
270°
Wind speed
09 kts
Lowest cloud amount
few clouds
Temperature
13.3°C
Dew point
11.1°C
Humidity
86%
Weather condition
light rain

Description

Louisville International Airport is a public and military use airport centrally located in the city of Louisville in Jefferson County, Kentucky. Its IATA airport code, SDF, is based on the airport's former name, Standiford Field.

Climatology

Humid “subtropical” climate (Köppen climate classification Cfa) - characterized by hot, humid summers and cool winters. Significant amounts of precipitation occur in all seasons in most areas. Winter rainfall (and sometimes snowfall) is associated with large storms that the westerlies steer from west to east. Most summer rainfall occurs during thunderstorms.

Runways

Designator Length Width Surface Rops
11/29 2210 46 CON Yes/Yes
17L/35R 2615 46 CON Yes/Yes
17R/35L 3307 46 CON Yes/Yes

Airport map

Aerial View

SKYbrary Partners:

Safety knowledge contributed by: